This demonstration page uses our WeatherBlox Daily Observations layout. Learn more.

38.89511, -77.03637

Hourly Observations for December 14, 2016

Temp ( °F °C ) Dew Point ( °F °C ) Humidity (%) Winds ( mph kmh ) Pressure ( in mb ) Visibility ( mi km ) Precip ( " mm )
12:01 am 00:01 Mostly Cloudy 41 5 31 -0.6 67 67 Calm 30.03 1017 10 16.0934 0 0
12:52 am 00:52 Cloudy 41 5 33 0.6 73 73 NNW 5 7 30.01 1016 10 16.0934 0 0
1:30 am 01:30 Mostly Cloudy 39 4 30 -1 70 70 NNW 7 11 30.03 1017 10 16.0934 0 0
1:52 am 01:52 Mostly Cloudy 40 4.4 32 0 73 73 NNW 3 6 30.02 1017 10 16.0934 0 0
2:52 am 02:52 Cloudy 39 3.9 32 0 76 76 NNW 5 7 30.01 1016 10 16.0934 0 0
3:52 am 03:52 Cloudy 39 3.9 34 1.1 82 82 NNW 5 7 30.02 1017 10 16.0934 0 0
4:52 am 04:52 Partly Cloudy 40 4.4 33 0.6 77 77 NW 13 20 30.04 1017 10 16.0934 0 0
5:52 am 05:52 Mostly Clear 38 3.3 31 -0.6 76 76 NNW 12 19 30.06 1018 10 16.0934 0 0
6:52 am 06:52 Partly Cloudy 37 2.8 30 -1.1 76 76 NNW 12 19 30.08 1019 10 16.0934 0 0
7:52 am 07:52 Partly Cloudy 38 3.3 30 -1.1 73 73 NNW 10 17 30.11 1020 10 16.0934 0 0
8:52 am 08:52 Partly Cloudy 40 4.4 30 -1.1 68 68 NNW 12 19 30.13 1020 10 16.0934 0 0
9:52 am 09:52 Partly Cloudy 42 5.6 28 -2.2 58 58 WNW 15 24 30.14 1021 10 16.0934 0 0
10:52 am 10:52 Mostly Cloudy 44 6.7 27 -2.8 51 51 NNW 9 15 30.12 1020 10 16.0934 0 0
11:52 am 11:52 Mostly Cloudy 47 8.3 26 -3.3 44 44 NNW 14 22 30.1 1019 10 16.0934 0 0
12:52 pm 12:52 Mostly Cloudy 47 8.3 23 -5 39 39 NW 12 19 30.08 1019 10 16.0934 0 0
1:52 pm 13:52 Mostly Cloudy 47 8.3 21 -6.1 36 36 NNW 15 24 30.05 1018 10 16.0934 0 0
2:52 pm 14:52 Cloudy 46 7.8 20 -6.7 35 35 N 7 11 30.04 1017 10 16.0934 0 0
3:52 pm 15:52 Cloudy 46 7.8 19 -7.2 34 34 VRB 5 7 30.04 1017 10 16.0934 0 0
4:52 pm 16:52 Cloudy 44 6.7 22 -5.6 41 41 Calm 30.03 1017 10 16.0934 0 0
5:52 pm 17:52 Cloudy 44 6.7 20 -6.7 38 38 SSW 7 11 30.03 1017 10 16.0934 0 0
6:52 pm 18:52 Cloudy 44 6.7 25 -3.9 47 47 SE 3 6 30.01 1016 10 16.0934 0 0
7:52 pm 19:52 Cloudy 42 5.6 24 -4.4 49 49 Calm 29.99 1016 10 16.0934 0 0
8:52 pm 20:52 Cloudy 42 5.6 29 -1.7 60 60 Calm 29.98 1015 10 16.0934 0 0
9:52 pm 21:52 Cloudy 42 5.6 27 -2.8 55 55 Calm 29.96 1014 10 16.0934 0 0
10:52 pm 22:52 Cloudy 41 5 18 -7.8 39 39 NW 9 15 29.94 1014 10 16.0934 0 0
11:52 pm 23:52 Cloudy 41 5 15 -9.4 35 35 NNW 10 17 29.94 1014 10 16.0934 0 0

Powered by AerisWeather